{"data":{"norad_id":66356,"epoch":"2026-05-24T23:33:26.341632Z","epoch_age_seconds":80073,"freshness":"FRESH","line1":"1 66356U 25254J   26144.98155488  .00024674  00000+0  84228-3 0  9998","line2":"2 66356  53.1585 238.2741 0001199  86.0625 274.0512 15.30205929 30650","mean_motion":15.30205929,"eccentricity":0.0001199,"inclination_deg":53.1585,"raan_deg":238.2741,"arg_perigee_deg":86.0625,"mean_anomaly_deg":274.0512,"bstar":0.00084228,"rev_number":3065,"period_min":94.104981081929,"perigee_km":474.37565176064,"apogee_km":476.01908134174,"semimajor_km":6853.3343665512,"source":"CELESTRAK","updated_at":"2026-05-25T13:38:21.175514Z"}}